Location: Gisborne
(38.6530°S, 178.0040°E)
Time: 09:56:31
(UTC+13:00)

ISS - Pass Details

Date: 28 January 2019
Orbit: 403 x 411 km, 51.6° (Epoch: 16 February)

Event Time Altitude Azimuth Distance (km) Brightness Sun altitude
Exits shadow 05:31:45 - 325° (NW) 1,544 -1.5 -8.2°
Reaches altitude 10° 05:31:55 10° 326° (NW) 1,480 -1.5 -8.1°
Maximum altitude 05:35:09 52° 43° (NE) 525 -3.2 -7.6°
Drops below altitude 10° 05:38:25 10° 120° (ESE) 1,493 0.9 -7.0°
Sets 05:40:33 0° 125° (SE) 2,359 2.7 -6.7°
